sat.trackr.live / text

‹ back to catalog

IRIDE-MS2-HEO-10

NORAD 68982 · 2026-100C

PAYLOAD ACTIVE UNKNOWN

§ Identity

Operator
Country
IT
Launch date
2026-05-03
Launch site
AFWTR
Launch vehicle
Mass (kg)
RCS (m²)

External: N2YO · Heavens-Above · Gunter

§ Orbital elements

Epoch: 2026-05-25T03:23:03.887808Z

Period
96.57 min
Inclination
97.7360°
Eccentricity
0.0002626
Mean motion
14.91183487 rev/d
Perigee alt
592.4 km
Apogee alt
596.1 km
Semi-major
6,972.4 km
B*
1.4195e-4
RAAN
43.0042°
Arg perigee
214.8735°
Mean anomaly
145.2312°
Rev number
326

§ Raw data

IRIDE-MS2-HEO-101 68982U 26100C   26145.14101722  .00001355  00000+0  14195-3 0  99942 68982  97.7360  43.0042 0002626 214.8735 145.2312 14.91183487  3261

JSON: /api/v1/satellites/68982 · /tle

For live sub-satellite position, see the globe view (requires WebGL).

§ Visibility from observer

Set your observer location to see the next 7 days of passes ≥ 10°. The values pass through the URL so the page stays shareable.

No JS? Fill the form by hand. The geolocation button needs JavaScript.